Overview Statistics Trail Chart Weather Telemetry Raw packets
 

This is the latest recevied weather packets stored in our database for station/object YC0ACE-13. If no packets are shown the sender has not sent any weather packets the latest 10 day(s).

<< 111 112 113 114 115 >>
Time Temp. Humidity Pressure Rain* Wind** Luminosity Snow
1787728825 32.78° C 62% 1010.5 hPa 0 mm - 597 W/m² -
1787728525 32.78° C 63% 1010.5 hPa 0 mm - 468 W/m² -
1787728225 32.78° C 61% 1010.5 hPa 0 mm - 550 W/m² -
1787727926 32.78° C 62% 1010.5 hPa 0 mm - 595 W/m² -
1787727624 32.78° C 61% 1010.5 hPa 0 mm - 261 W/m² -
1787727325 32.78° C 62% 1010.5 hPa 0 mm - 658 W/m² -
1787727027 32.78° C 61% 1010.8 hPa 0 mm - 665 W/m² -
1787726735 32.78° C 61% 1010.8 hPa 0 mm - 366 W/m² -
1787726425 32.78° C 60% 1010.8 hPa 0 mm - 403 W/m² -
1787726126 32.78° C 60% 1010.8 hPa 0 mm - 444 W/m² -
1787725825 32.78° C 60% 1011.2 hPa 0 mm - 725 W/m² -
1787725528 33.89° C 58% 1011.2 hPa 0 mm - 541 W/m² -
1787725227 33.89° C 52% 1011.2 hPa 0 mm - 705 W/m² -
1787724925 33.33° C 54% 1010.8 hPa 0 mm - 736 W/m² -
1787724625 33.33° C 53% 1011.2 hPa 0 mm - 492 W/m² -
1787724324 33.89° C 51% 1011.2 hPa 0 mm - 208 W/m² -
1787724025 33.33° C 52% 1011.2 hPa 0 mm - 572 W/m² -
1787723726 33.33° C 52% 1011.5 hPa 0 mm - 345 W/m² -
1787723425 33.33° C 52% 1011.5 hPa 0 mm - 523 W/m² -
1787723124 33.33° C 52% 1011.5 hPa 0 mm - 675 W/m² -
1787722825 32.78° C 53% 1011.5 hPa 0 mm - 794 W/m² -
1787722526 33.33° C 52% 1011.9 hPa 0 mm - 238 W/m² -
1787722224 33.89° C 50% 1011.9 hPa 0 mm - 368 W/m² -
1787721925 33.89° C 48% 1011.9 hPa 0 mm - 851 W/m² -
1787721625 33.89° C 48% 1011.9 hPa 0 mm - 833 W/m² -

* Rain latest hour (hover to see other rain measurements)
** Current wind speed in m/s (hover to see current wind gust speed)